[[{"header":{"parameterUnit":"m.s-1","parameterCategory":1,"la1":30.2991,"la2":30.254,"lo1":-89.0895,"lo2":-89.0444,"dy":0.0017,"dx":0.0017,"nx":28,"ny":28,"refTime":"2025-09-02T03:00:00:Z","depth":0,"parameterNumber":2,"parameterNumberName":"U-component_of_WINDS"},"data":[0,0,0,0,0,0,0,0,0,0,0,0,0,0,0,0,0,0,0,0,0,0,0,0,0,0,0,0,0,0,0,0,0,0,0,0,0,0,0,0,0,0,0,0,0,0,0,0,0,0,0,0,0,0,0,0,0,0,-5.708,-5.7081,0,-5.7162,-5.7163,-5.7164,-5.7034,-5.703,-5.7025,-5.7021,-5.7102,-5.7108,-5.7115,0,0,0,0,0,0,0,0,0,0,0,0,0,-5.6807,-5.6812,-5.708,-5.7081,-5.7082,-5.7162,-5.7163,-5.7164,-5.7035,-5.7029,-5.7024,-5.7019,-5.71,-5.7108,-5.7115,0,0,0,0,0,0,0,0,0,0,0,0,0,-5.6911,-5.6814,-5.708,-5.7027,-5.7023,-5.7162,-5.7163,-5.7164,-5.7036,-5.7029,-5.7023,-5.7016,-5.7098,-5.7107,-5.7116,-5.7309,0,0,-5.7145,-5.7149,0,0,0,0,0,0,0,0,-5.6905,-5.6921,-5.7034,-5.7031,-5.7027,-5.7081,-5.7096,-5.7213,-5.7038,-5.7031,-5.7021,-5.7013,-5.71,-5.7109,-5.7139,-5.7313,-5.7316,-5.7146,-5.7152,-5.7156,-5.7159,0,0,0,0,0,0,0,-5.6898,-5.6916,-5.7112,-5.7036,-5.7031,-5.6998,-5.7005,-5.7118,-5.7102,-5.7031,-5.7022,-5.7034,-5.7097,-5.713,-5.714,-5.7317,-5.7146,-5.7154,-5.716,-5.7164,-5.7649,-5.7656,0,0,0,0,0,0,-5.6898,-5.6911,-5.7109,-5.7114,-5.6948,-5.7008,-5.7017,-5.707,-5.7101,-5.7099,-5.7039,-5.7027,-5.7118,-5.7129,-5.7143,-5.7367,-5.7156,-5.7165,-5.717,-5.7642,-5.765,-5.7658,0,0,0,0,0,0,-5.6892,-5.6917,-5.7106,-5.7011,-5.7032,-5.702,-5.7082,-5.7075,-5.7108,-5.7107,-5.7103,-5.7076,-5.7113,-5.7129,-5.7268,-5.7368,-5.7169,-5.7178,-5.7633,-5.7644,-5.7654,-5.7819,0,0,0,0,0,0,-5.6885,-5.6915,-5.699,-5.7013,-5.7038,-5.7232,-5.7088,-5.7082,-5.7126,-5.7111,-5.7141,-5.7139,-5.7109,-5.7254,-5.7277,-5.7377,-5.7185,-5.7624,-5.7638,-5.7651,-5.7805,-5.7834,-5.786,0,0,0,0,0,-5.6876,-5.7033,-5.6994,-5.7019,-5.713,-5.7238,-5.7252,-5.7214,-5.7134,-5.7207,-5.7206,-5.7138,-5.7354,-5.727,-5.7294,-5.7399,-5.7618,-5.7634,-5.765,-5.7792,-5.7829,-5.7859,0,0,0,0,0,0,-5.7021,-5.7035,-5.6992,-5.7162,-5.72,-5.7216,-5.7307,-5.7254,-5.7315,-5.7298,-5.7249,-5.7257,-5.7405,-5.7416,-5.7322,-5.7585,-5.7472,-5.7494,-5.7572,-5.7606,-5.7633,-5.7626,-5.7193,0,0,0,0,0,-5.7073,-5.716,-5.7167,-5.7316,-5.7338,-5.732,-5.7365,-5.7333,-5.737,-5.7385,-5.7393,-5.7431,-5.7506,-5.7557,-5.7627,-5.7807,-5.7809,-5.789,-5.7918,-5.7941,-5.7959,-5.8051,-5.8086,-5.7711,-5.7711,-5.7711,0,0,-5.718,-5.7199,-5.7257,-5.7346,-5.7371,-5.7461,-5.7334,-5.7435,-5.75,-5.74,-5.753,-5.7539,-5.7576,-5.7736,-5.7806,-5.7749,-5.8064,-5.7961,-5.7979,-5.7985,-5.8072,-5.8107,-5.8139,-5.7722,-5.772,-5.7719,0,0,-5.7422,-5.7446,-5.7571,-5.76,-5.764,-5.7627,-5.7657,-5.7681,-5.7682,-5.7813,-5.7739,-5.7815,-5.7948,-5.7977,-5.801,-5.8261,-5.8199,-5.8285,-5.8428,-5.8518,-5.8548,-5.8573,-5.866,-5.8692,-5.8304,-5.8305,-5.8305,0,-5.755,-5.7683,-5.7642,-5.7748,-5.7788,-5.7702,-5.7827,-5.7856,-5.7917,-5.7946,-5.7882,-5.8045,-5.8065,-5.8227,-5.8289,-5.8319,-5.835,-5.828,-5.8547,-5.8573,-5.8596,-5.8678,-5.8711,-5.8315,-5.8314,-5.8313,-5.8312,0,-5.7837,-5.7931,-5.8027,-5.8088,-5.8139,-5.8254,-5.8229,-5.8285,-5.8249,-5.8242,-5.8374,-5.8395,-5.8467,-5.8503,-5.8469,-5.8661,-5.8624,-5.8555,-5.844,-5.8642,-5.8718,-5.8749,-5.8329,-5.8325,-5.8322,-5.832,0,0,-5.8171,-5.8208,-5.8244,-5.8269,-5.8307,-5.8377,-5.8488,-5.8558,-5.8605,-5.8651,-5.8739,-5.8853,-5.8788,-5.8825,-5.8793,-5.8874,-5.9067,-5.8793,-5.8793,-5.8841,-5.9276,-5.9326,-5.9363,-5.9028,-5.9034,-5.9038,-5.9271,0,-5.8409,-5.86,-5.8565,-5.875,-5.8834,-5.8753,-5.8849,-5.8881,-5.8878,-5.8947,-5.8943,-5.9023,-5.8933,-5.8954,-5.903,-5.9028,-5.9153,-5.9011,-5.9107,-5.9111,-5.9097,-5.9403,-5.9456,-5.9675,-5.9301,-5.9306,-5.931,0,-5.8712,-5.8768,-5.8961,-5.8983,-5.9017,-5.9104,-5.9163,-5.9232,-5.9266,-5.9258,-5.9299,-5.9252,-5.9359,-5.9245,-5.939,-5.9294,-5.9331,-5.9336,-5.9344,-5.9348,-5.9221,-5.9413,-5.9745,-5.9776,-5.9357,-5.9353,-5.935,0,-5.8931,-5.9056,-5.9186,-5.9211,-5.9241,-5.9303,-5.9318,-5.9346,-5.939,-5.9442,-5.9469,-5.9534,-5.9569,-5.9619,-5.959,-5.951,-5.9739,-5.9623,-5.9733,-5.9734,-5.9782,-5.9779,-6.0121,-5.9813,-5.9812,-5.9812,-5.9811,0,-5.9199,-5.9319,-5.9285,-5.9365,-5.9497,-5.9456,-5.9587,-5.9592,-5.9618,-5.9696,-5.9631,-5.9705,-5.9663,-5.9734,-5.9712,-5.9834,-5.9851,-5.9845,-5.9837,-5.9849,-5.985,-5.9871,-5.9853,-5.982,-5.9818,-5.9817,-5.9815,0,-5.9465,-5.9448,-5.9584,-5.9602,-5.9609,-5.9705,-5.9718,-5.9792,-5.9784,-5.9883,-5.9904,-5.9891,-5.997,-5.9947,-6.0033,-6.0018,-6.0171,-6.0146,-6.016,-6.0152,-6.0261,-6.025,-6.0627,-6.0672,-6.0338,-6.0341,-6.0344,0,-5.9635,-5.9726,-5.9753,-5.9801,-5.9821,-5.99,-5.9943,-5.9906,-5.9954,-6.0,-6.0067,-6.0142,-6.0198,-6.0329,-6.0326,-6.0391,-6.0364,-6.0492,-6.0373,-6.0382,-6.0362,-6.0355,-6.0363,-6.0514,-6.0518,-6.0522,-6.0524,0,-5.9938,-5.9924,-5.999,-6.0054,-6.0108,-6.0156,-6.0198,-6.0241,-6.0206,-6.0264,-6.0344,-6.0389,-6.0477,-6.055,-6.0609,-6.0622,-6.0567,-6.0562,-6.059,-6.0601,-6.0604,-6.06,-6.022,-6.0553,-6.055,-6.0548,-6.0546,-6.0545,-6.0158,-6.0234,-6.0264,-6.034,-6.0367,-6.0408,-6.0477,-6.0477,-6.0544,-6.0613,-6.0587,-6.0679,-6.0709,-6.0782,-6.0804,-6.0874,-6.0825,-6.0867,-6.0876,-6.0886,-6.0898,-6.0596,-6.0885,-6.0884,-6.0883,-6.0883,-6.0882,0,-6.0454,-6.0469,-6.054,-6.06,-6.0659,-6.0603,-6.0646,-6.0698,-6.0781,-6.0814,-6.0871,-6.0963,-6.1033,-6.1036,-6.1101,-6.1157,-6.1133,-6.1175,-6.1168,-6.1172,-6.094,-6.0908,-6.1193,-6.1193,-6.1193,-6.1193,-6.1193,-6.1192,-6.0615,-6.0738,-6.0729,-6.0865,-6.0879,-6.0969,-6.0997,-6.1033,-6.1059,-6.1165,-6.1223,-6.1225,-6.1245,-6.1311,-6.1372,-6.1371,-6.1396,-6.1447,-6.1436,-6.1219,-6.1188,-6.1159,-6.1128,-6.1454,-6.1455,-6.1661,-6.1663,-6.1664]},{"header":{"parameterUnit":"m.s-1","parameterCategory":1,"la1":30.2991,"la2":30.254,"lo1":-89.0895,"lo2":-89.0444,"dy":0.0017,"dx":0.0017,"nx":28,"ny":28,"refTime":"2025-09-02T03:00:00:Z","depth":0,"parameterNumber":3,"parameterNumberName":"V-component_of_WINDS"},"data":[0,0,0,0,0,0,0,0,0,0,0,0,0,0,0,0,0,0,0,0,0,0,0,0,0,0,0,0,0,0,0,0,0,0,0,0,0,0,0,0,0,0,0,0,0,0,0,0,0,0,0,0,0,0,0,0,0,0,-0.8705,-0.8705,0,-0.8729,-0.8729,-0.8729,-0.873,-0.873,-0.873,-0.8729,-0.8757,-0.8758,-0.8759,0,0,0,0,0,0,0,0,0,0,0,0,0,-0.8661,-0.8662,-0.8705,-0.8705,-0.8705,-0.8729,-0.8729,-0.8729,-0.873,-0.873,-0.873,-0.8729,-0.8756,-0.8758,-0.8759,0,0,0,0,0,0,0,0,0,0,0,0,0,-0.8682,-0.8662,-0.8705,-0.8708,-0.8709,-0.8729,-0.8729,-0.873,-0.873,-0.873,-0.8729,-0.8729,-0.8756,-0.8758,-0.8759,-0.8777,0,0,-0.8764,-0.8764,0,0,0,0,0,0,0,0,-0.8681,-0.8684,-0.8708,-0.8708,-0.8709,-0.8726,-0.8724,-0.8746,-0.873,-0.8722,-0.8729,-0.8729,-0.8747,-0.8749,-0.8755,-0.8779,-0.878,-0.8764,-0.8765,-0.8765,-0.8766,0,0,0,0,0,0,0,-0.8679,-0.8683,-0.8714,-0.8708,-0.8709,-0.8709,-0.8712,-0.8728,-0.8737,-0.8723,-0.8723,-0.8726,-0.8747,-0.8753,-0.8756,-0.878,-0.8764,-0.8765,-0.8766,-0.8767,-0.8819,-0.8819,0,0,0,0,0,0,-0.8677,-0.8681,-0.8714,-0.8715,-0.8693,-0.8711,-0.8713,-0.8721,-0.8737,-0.8739,-0.8726,-0.8726,-0.8751,-0.8754,-0.8757,-0.8778,-0.8765,-0.8767,-0.8768,-0.8818,-0.8819,-0.8819,0,0,0,0,0,0,-0.8676,-0.868,-0.8713,-0.8698,-0.8702,-0.8712,-0.872,-0.8722,-0.8728,-0.8739,-0.8741,-0.8731,-0.8751,-0.8754,-0.8772,-0.8779,-0.8767,-0.8769,-0.8818,-0.8819,-0.8819,-0.8822,0,0,0,0,0,0,-0.8675,-0.8679,-0.8686,-0.8698,-0.8703,-0.8727,-0.8721,-0.8723,-0.873,-0.873,-0.8744,-0.8746,-0.8751,-0.8769,-0.8773,-0.8781,-0.877,-0.8817,-0.8818,-0.8819,-0.8821,-0.8823,-0.8824,0,0,0,0,0,-0.8673,-0.8687,-0.8686,-0.869,-0.8712,-0.8727,-0.873,-0.8735,-0.8731,-0.8738,-0.8745,-0.8745,-0.8778,-0.8771,-0.8775,-0.8784,-0.8817,-0.8818,-0.8819,-0.8821,-0.8823,-0.8824,0,0,0,0,0,0,-0.8677,-0.8689,-0.8688,-0.8706,-0.8716,-0.8727,-0.8737,-0.8737,-0.8748,-0.8748,-0.8754,-0.8757,-0.8774,-0.8781,-0.8773,-0.8802,-0.8797,-0.8799,-0.8797,-0.8798,-0.88,-0.8798,-0.8771,0,0,0,0,0,-0.868,-0.869,-0.8701,-0.8716,-0.872,-0.8727,-0.8734,-0.8737,-0.8747,-0.8752,-0.876,-0.877,-0.8783,-0.8791,-0.8803,-0.8822,-0.8825,-0.883,-0.8831,-0.8832,-0.8834,-0.8843,-0.8846,-0.8823,-0.8823,-0.8823,0,0,-0.8686,-0.8694,-0.87,-0.8717,-0.8724,-0.8735,-0.8731,-0.8744,-0.8752,-0.8754,-0.877,-0.8776,-0.8789,-0.8806,-0.8815,-0.8813,-0.8841,-0.8834,-0.8834,-0.8836,-0.8845,-0.8847,-0.8849,-0.8824,-0.8824,-0.8823,0,0,-0.8703,-0.871,-0.8723,-0.873,-0.8741,-0.8745,-0.8748,-0.8759,-0.8763,-0.8779,-0.878,-0.8791,-0.8812,-0.882,-0.8828,-0.8846,-0.8846,-0.8849,-0.8857,-0.8866,-0.8868,-0.8869,-0.8875,-0.8877,-0.8851,-0.8851,-0.8851,0,-0.871,-0.8726,-0.873,-0.8742,-0.8748,-0.8749,-0.8762,-0.8769,-0.8783,-0.8788,-0.8785,-0.8811,-0.8819,-0.8838,-0.8842,-0.8848,-0.8852,-0.8848,-0.8867,-0.8869,-0.887,-0.8876,-0.8878,-0.8851,-0.8851,-0.8851,-0.8851,0,-0.8734,-0.8745,-0.8754,-0.8766,-0.8774,-0.8787,-0.8792,-0.88,-0.8801,-0.8806,-0.8822,-0.8832,-0.8845,-0.885,-0.8852,-0.8869,-0.8867,-0.8865,-0.8861,-0.8872,-0.8878,-0.888,-0.8852,-0.8852,-0.8852,-0.8852,0,0,-0.8755,-0.8768,-0.8771,-0.8776,-0.8787,-0.8796,-0.8808,-0.882,-0.8826,-0.8836,-0.8846,-0.8864,-0.8861,-0.8869,-0.8872,-0.888,-0.8893,-0.8878,-0.8878,-0.888,-0.8912,-0.8913,-0.8915,-0.8893,-0.8894,-0.8894,-0.891,0,-0.8773,-0.8794,-0.8796,-0.8815,-0.8825,-0.8825,-0.8835,-0.8843,-0.8848,-0.8857,-0.8863,-0.8874,-0.8871,-0.8876,-0.8884,-0.889,-0.89,-0.8889,-0.8903,-0.8904,-0.89,-0.8918,-0.892,-0.8934,-0.8913,-0.8913,-0.8913,0,-0.8797,-0.8806,-0.8825,-0.8833,-0.8838,-0.8847,-0.8857,-0.8866,-0.8875,-0.8878,-0.8886,-0.8887,-0.89,-0.8894,-0.8911,-0.8904,-0.891,-0.8914,-0.8914,-0.8916,-0.8909,-0.892,-0.8939,-0.8942,-0.8917,-0.8916,-0.8916,0,-0.881,-0.8827,-0.884,-0.8844,-0.8854,-0.8861,-0.8865,-0.8874,-0.888,-0.8889,-0.8894,-0.8905,-0.8911,-0.8919,-0.8924,-0.8919,-0.8941,-0.8935,-0.8943,-0.8943,-0.8948,-0.8948,-0.8969,-0.8952,-0.8952,-0.8952,-0.8952,0,-0.883,-0.8842,-0.8846,-0.8854,-0.8867,-0.8869,-0.8882,-0.8887,-0.8894,-0.8903,-0.8903,-0.8912,-0.8917,-0.8927,-0.8931,-0.8944,-0.8947,-0.895,-0.895,-0.8949,-0.8949,-0.8954,-0.8953,-0.8953,-0.8952,-0.8952,-0.8952,0,-0.8847,-0.885,-0.8864,-0.8872,-0.8874,-0.8883,-0.889,-0.8898,-0.8901,-0.8913,-0.8916,-0.8922,-0.8933,-0.8938,-0.8952,-0.8955,-0.897,-0.897,-0.8966,-0.8967,-0.8974,-0.8973,-0.8999,-0.9002,-0.8983,-0.8983,-0.8984,0,-0.8859,-0.8868,-0.8876,-0.8881,-0.8886,-0.8895,-0.8901,-0.8904,-0.891,-0.892,-0.8926,-0.8937,-0.8946,-0.8964,-0.897,-0.898,-0.8981,-0.8989,-0.8982,-0.8981,-0.898,-0.898,-0.898,-0.899,-0.899,-0.899,-0.8991,0,-0.8881,-0.8881,-0.889,-0.8898,-0.8905,-0.8912,-0.8919,-0.8924,-0.8927,-0.8934,-0.8945,-0.8952,-0.8965,-0.8975,-0.8986,-0.8991,-0.8992,-0.8992,-0.8995,-0.8994,-0.8991,-0.8992,-0.8969,-0.8992,-0.8992,-0.8992,-0.8992,-0.8992,-0.8896,-0.8903,-0.8909,-0.8918,-0.8923,-0.8929,-0.8936,-0.894,-0.8949,-0.8959,-0.896,-0.8971,-0.8979,-0.8993,-0.8998,-0.9007,-0.9005,-0.9009,-0.901,-0.901,-0.9011,-0.8989,-0.9009,-0.9009,-0.9009,-0.9009,-0.9009,0,-0.8917,-0.892,-0.8928,-0.8937,-0.8944,-0.8942,-0.8949,-0.8955,-0.8964,-0.8971,-0.8979,-0.8991,-0.9,-0.9006,-0.9016,-0.9022,-0.9023,-0.9025,-0.9025,-0.9026,-0.9012,-0.9009,-0.9024,-0.9024,-0.9024,-0.9024,-0.9024,-0.9024,-0.8929,-0.894,-0.8941,-0.8955,-0.8959,-0.8969,-0.8973,-0.8978,-0.8983,-0.8996,-0.9004,-0.9007,-0.9013,-0.9023,-0.9032,-0.9034,-0.9037,-0.904,-0.9041,-0.9028,-0.9027,-0.9025,-0.9022,-0.9041,-0.9041,-0.9054,-0.9054,-0.9054]}]]